Regional Weather Roundup
Issued by NWS

Home | Current Version | Previous Version | Graphics & Text | Print | Product List | Glossary On
Versions: 1 2 3 4 5 6 7 8 9 10 11 12 13 14 15 16 17 18 19 20 21 22 23 24 25 26 27 28 29 30 31 32 33 34 35 36 37 38 39 40 41 42 43 44 45 46 47 48 49 50
000
ASUS45 KABQ 301710
RWRNM
NEW MEXICO REGIONAL WEATHER ROUNDUP
NATIONAL WEATHER SERVICE ALBUQUERQUE NM
1100 AM MDT SAT JUL 30 2016

NOTE: "FAIR" MEANS FEW OR NO CLOUDS BELOW 12,000 FEET AGL WITH NO
       SIGNIFICANT WEATHER OR OBSTRUCTIONS TO VISION.

      THIS PRODUCT IS RELEASED AS TWO VERSIONS.  ONE VERSION NEAR
      THE TOP OF THE HOUR CONTAINING PRELIMINARY DATA FROM ALBUQUERQUE
      AND OTHER STATIONS.  A FINAL VERSION WITH ADDITIONAL DATA IS
      ISSUED ABOUT 10 MINUTES AFTER THE HOUR.

NMZ501-503-504-510>518-301800-
NORTHWEST PLATEAU/NORTHCENTRAL MOUNTAINS

CITY           SKY/WX    TMP DP  RH WIND       PRES   REMARKS
FARMINGTON     FAIR      82  44  26 VRB6      30.12F
LOS ALAMOS     FAIR      76  44  32 SE13G18   30.30F
SANTA FE       FAIR      79  48  33 W3        30.24S
TAOS           FAIR      75  41  29 W3        30.30S
ANGEL FIRE     FAIR      72  42  33 W17       30.37S

$$
NMZ402-403-502-505>509-301800-
WESTCENTRAL MOUNTAINS/SOUTHWEST MOUNTAINS

CITY           SKY/WX    TMP DP  RH WIND       PRES   REMARKS
GALLUP         FAIR      82  45  27 W13       30.22S
GRANTS         FAIR      82  42  24 SE10      30.24F
SILVER CITY    FAIR      80  55  41 SE5       30.19F

$$
NMZ407-409-411-412-301800-
SOUTHERN DESERTS

CITY           SKY/WX    TMP DP  RH WIND       PRES   REMARKS
LORDSBURG      FAIR      86  57  37 E12G17    30.10F
DEMING         LGT RAIN  86  56  35 CALM      30.10F
LAS CRUCES     FAIR      83  56  39 S3        30.13F
HOLLOMAN AFB   FAIR      85  58  39 VRB5      30.09F
ALAMOGORDO     FAIR      84  55  37 S8        30.12F
T OR C         FAIR      83  54  36 S9        30.14F

$$
NMZ519>523-301800-
CENTRAL VALLEYS/CENTRAL HIGHLANDS

CITY           SKY/WX    TMP DP  RH WIND       PRES   REMARKS
ALBUQUERQUE    FAIR      78  54  43 VRB7      30.18F
DOUBLE EAGLE   MOSUNNY   79  52  38 SE6G17    30.22F
MORIARTY ARPT  FAIR      77  51  39 S7        30.25F
CLINES CORNERS FAIR      76  51  41 W17       30.30F
BELEN          FAIR      83  47  28 SW8       30.16F
SOCORRO        FAIR      85  51  30 SE18G24   30.14S

$$
NMZ524>526-539-540-301800-
SOUTHCENTRAL MOUNTAINS

CITY           SKY/WX    TMP DP  RH WIND       PRES   REMARKS
RUIDOSO          N/A     77  46  33 S9G17     30.32F

$$
NMZ527>531-301800-
NORTHEAST HIGHLANDS/NORTHEAST PLAINS

CITY           SKY/WX    TMP DP  RH WIND       PRES   REMARKS
LAS VEGAS      FAIR      77  52  41 S17G26    30.25F
RATON          FAIR      73  52  47 S8        30.19F
CLAYTON        FAIR      81  60  48 S18G30    30.13F

$$
NMZ532>537-301800-
EASTCENTRAL PLAINS

CITY           SKY/WX    TMP DP  RH WIND       PRES   REMARKS
TUCUMCARI      FAIR      86  60  41 SW16G23   30.09F
CANNON AFB     FAIR      83  61  45 SW10      30.15F
CLOVIS AIRPORT FAIR      82  61  47 S12G20    30.15F

$$
NMZ028-029-538-301800-
SOUTHEAST PLAINS

CITY           SKY/WX    TMP DP  RH WIND       PRES   REMARKS
ROSWELL        FAIR      88  57  34 S13       30.09F
ARTESIA        FAIR      84  61  45 E6G15     30.10S
CARLSBAD       FAIR      85  59  41 VRB5      30.07S
HOBBS          MOSUNNY   84  59  42 SE8G16    30.13S


$$




USA.gov is the U.S. government's official web portal to all federal, state and local government web resources and services.